Temperature
18 18 17 17 17 17 17 17 17 17 16 16 16 16 16 16 15 15 15 15 14 14 14 14 14 14 14 14 14 13 13 13 13 13 13 13 12 12 12 12 12 12 12
18 18 18 17 17 17 17 17 16 16 16 16 16 16 16 15 15 15 15 15 14 14 14 14 14 14 14 13 13 13 13 13 12 12 12 12 12 12 12 12 12 12 12
18 18 17 17 17 17 17 16 16 16 16 16 16 16 15 15 15 15 15 14 14 14 14 14 13 13 13 13 13 13 13 12 12 12 12 12 12 12 12 12 12 11 11
18 18 17 17 17 17 17 16 16 16 16 16 16 16 15 15 15 15 14 14 14 14 14 13 13 13 13 13 13 13 12 12 12 12 11 11 11 11 11 11 11 11 11
18 17 17 17 17 17 16 16 16 16 16 16 15 15 15 15 15 14 14 14 14 14 13 13 13 13 13 13 13 12 12 12 12 11 11 11 11 11 11 11 11 11 11
17 17 17 17 17 16 16 16 16 15 15 15 15 15 15 15 14 14 14 13 13 13 13 13 13 13 13 12 12 12 12 12 11 11 11 11 11 11 11 10 10 10 10
17 17 17 17 16 16 16 16 15 15 15 15 15 15 15 14 14 14 14 13 13 13 13 13 13 12 12 12 12 12 12 11 11 11 11 11 10 10 10 10 10 10 10
17 17 16 16 16 16 16 15 15 15 15 15 14 14 14 14 14 14 13 13 13 13 12 12 12 12 12 12 12 12 11 11 11 11 11 10 10 10 10 10 9 9 9
17 16 16 16 16 15 15 15 15 15 14 14 14 14 14 14 14 13 13 13 13 13 12 12 12 12 12 11 11 11 11 11 11 10 10 10 10 10 10 9 9 9 9
16 16 16 16 15 15 15 15 14 14 14 14 14 14 14 13 13 13 13 13 12 12 12 12 12 11 11 11 11 11 11 10 10 10 10 10 9 9 9 9 9 8 8
16 16 16 15 15 15 15 14 14 14 14 13 13 13 13 13 13 13 12 12 12 12 12 11 11 11 11 11 10 10 10 10 9 9 9 9 9 9 8 8 8 8 8
16 16 15 15 15 14 14 14 14 13 13 13 13 13 13 12 12 12 12 12 12 11 11 11 11 10 10 10 10 10 9 9 9 9 8 8 8 8 8 8 7 7 7
16 15 15 15 14 14 14 14 13 13 13 12 12 12 12 12 12 12 11 11 11 11 10 10 10 10 10 9 9 9 9 9 8 8 8 7 7 7 7 7 7 7 6
15 15 15 14 14 14 14 13 13 13 12 12 12 12 11 11 11 11 11 11 10 10 10 9 9 9 9 9 9 9 8 8 8 7 7 7 6 6 6 6 6 6 5
15 14 14 14 14 13 13 13 13 12 12 12 12 11 11 11 11 11 11 10 10 10 9 9 9 9 8 8 8 8 7 7 7 7 6 6 6 6 5 5 5 5 5
14 14 14 13 13 13 13 12 12 12 12 12 11 11 11 11 11 10 10 10 10 9 9 8 8 8 8 8 7 7 7 6 6 6 6 6 5 5 5 4 4 4 4
14 13 13 13 13 13 12 12 12 12 11 11 11 11 11 10 10 10 10 9 9 9 8 8 8 7 7 7 7 6 6 6 6 6 5 5 5 4 4 4 3 3 3
13 13 13 13 12 12 12 12 11 11 11 11 11 10 10 10 10 9 9 9 8 8 8 7 7 7 7 6 6 6 5 5 5 5 5 4 4 4 4 3 3 3 2
13 12 12 12 12 12 11 11 11 11 11 10 10 10 10 9 9 9 9 8 8 8 7 7 7 6 6 6 5 5 5 5 4 4 4 4 4 4 3 3 3 2 2
12 12 12 12 11 11 11 11 10 10 10 10 10 10 9 9 9 8 8 8 7 7 7 6 6 6 5 5 5 5 4 4 4 4 4 4 3 3 3 3 2 2 2
12 11 11 11 11 10 10 10 10 10 10 9 9 9 9 9 8 8 7 7 7 7 6 6 6 5 5 5 4 4 4 4 4 3 3 3 3 3 2 2 2 1 1
11 11 11 10 10 10 10 10 10 9 9 9 9 8 8 8 7 7 7 7 7 6 6 6 5 5 5 5 4 4 4 3 3 3 3 3 2 2 2 1 1 1 1
11 10 10 10 10 9 9 9 9 9 9 9 8 8 8 7 7 7 7 6 6 6 6 5 5 5 4 4 4 4 3 3 3 3 2 2 2 2 1 1 1 1 0
10 9 9 9 9 9 8 8 8 8 8 8 8 7 7 7 7 6 6 6 6 6 5 5 5 4 4 4 4 3 3 3 2 2 2 2 2 1 1 1 0 0 -0
9 9 9 8 8 8 8 8 8 7 7 7 7 7 7 6 6 6 6 6 5 5 5 5 4 4 4 3 3 3 3 2 2 2 2 1 1 1 0 0 -0 -0 -1
8 8 8 8 8 7 7 7 7 7 7 7 6 6 6 6 6 6 5 5 5 5 4 4 4 3 3 3 3 3 2 2 2 1 1 1 1 0 -0 -0 -1 -1 -1
Wind_Speed
6 5 5 5 5 4 3 3 3 3 4 4 3 3 3 3 3 3 2 1 1 1 1 1 1 1 1 1 1 1 1 1 0 1 1 1 2 2 2 1 1 1 1
5 5 5 5 4 4 4 3 4 3 3 3 4 3 2 3 3 3 2 2 1 1 1 1 1 1 1 1 1 1 1 0 1 0 1 2 1 1 1 1 1 2 1
5 5 4 4 4 4 4 3 4 4 4 3 4 3 2 2 1 2 2 2 2 1 1 1 1 1 0 0 0 1 1 1 1 0 1 1 1 2 2 2 2 2 2
5 5 4 4 4 4 3 3 3 3 3 3 3 3 3 2 1 1 1 2 2 1 2 1 1 2 1 0 0 0 1 0 1 0 1 1 1 2 1 2 3 3 2
6 5 4 3 4 4 3 3 2 2 2 2 3 3 2 2 1 1 0 1 1 2 2 1 2 4 4 2 1 1 1 1 0 0 1 1 2 2 2 2 2 3 3
6 5 4 3 4 4 4 3 3 2 2 2 3 3 2 2 3 3 2 0 1 2 2 1 2 3 3 4 4 3 2 1 1 0 1 1 2 2 2 2 2 2 3
7 5 4 4 4 4 4 4 3 3 2 2 2 3 2 2 3 3 2 1 1 0 1 1 1 1 2 2 1 1 2 2 1 1 2 3 2 2 2 3 2 2 3
6 6 5 5 4 4 4 3 3 2 3 3 2 3 3 2 3 2 1 0 1 1 1 1 1 1 1 1 1 0 1 3 3 2 2 2 2 2 2 2 3 3 4
6 6 6 6 5 4 4 4 3 2 2 2 2 2 2 2 2 2 2 1 1 2 1 1 1 0 1 1 1 1 2 2 2 1 2 2 4 5 4 2 2 2 4
5 5 5 5 5 5 4 3 3 2 2 2 2 2 2 2 2 3 3 1 1 1 1 1 1 0 1 0 1 2 2 3 2 2 2 3 3 4 4 1 2 2 3
5 5 5 5 5 5 4 3 3 2 2 2 2 1 2 2 2 3 3 2 1 1 1 1 1 1 1 1 1 2 3 2 2 2 2 2 2 2 2 2 2 1 2
5 5 5 5 5 5 5 3 3 3 2 2 2 1 1 1 2 3 4 2 1 0 1 0 1 1 1 1 2 2 3 2 1 1 1 2 2 2 2 2 3 4 3
5 5 5 5 4 4 5 4 3 3 2 2 2 2 1 1 1 2 3 2 2 1 1 1 1 1 1 1 2 3 2 1 1 1 2 2 2 2 2 2 3 4 5
5 5 4 4 4 4 3 3 3 2 2 2 2 2 2 1 1 1 1 1 2 1 1 1 1 1 1 2 2 2 1 1 1 2 2 2 2 2 2 2 2 2 3
5 4 4 4 4 3 3 2 2 1 2 3 2 2 2 2 2 2 2 2 2 1 0 0 0 0 0 1 1 1 1 1 2 2 2 2 2 2 2 2 2 2 3
4 4 3 3 4 4 3 2 3 2 2 2 3 3 1 2 3 3 2 2 2 2 1 1 1 1 1 1 1 2 1 1 1 1 2 2 2 2 3 2 2 2 3
3 3 3 3 3 3 3 3 2 2 3 2 1 2 3 3 3 2 2 2 2 2 1 2 2 2 2 1 1 2 2 2 1 1 2 2 2 2 3 3 2 3 4
2 3 3 3 3 3 3 3 3 2 1 1 1 2 3 3 3 3 2 2 1 2 2 2 2 1 1 1 1 1 2 2 1 2 2 2 2 2 3 3 3 3 4
2 2 2 3 2 2 3 3 2 3 2 2 1 0 1 2 2 2 3 2 2 2 2 1 1 1 1 1 1 1 1 1 1 2 2 2 2 2 3 3 3 5 4
2 4 3 2 2 2 2 2 2 3 2 2 2 2 2 2 1 2 2 2 2 2 2 2 1 1 1 1 1 1 1 1 2 2 2 2 2 2 3 4 3 4 4
2 3 4 2 2 2 2 2 2 2 2 2 2 3 4 3 3 3 2 2 2 1 1 1 1 1 1 1 1 1 2 2 2 2 2 2 2 3 3 4 4 4 4
2 2 2 2 2 2 2 2 2 2 2 2 2 2 3 2 2 2 2 1 1 1 1 1 1 1 1 1 1 1 2 2 2 2 2 3 3 3 4 4 4 4 4
2 2 1 1 1 2 1 1 2 2 2 2 2 2 2 2 1 1 1 1 1 1 0 0 0 1 1 1 1 1 1 1 2 2 3 3 3 3 3 4 5 5 4
2 1 1 1 1 1 1 1 1 1 1 2 2 2 2 2 2 1 1 1 1 0 0 0 1 1 1 1 2 1 0 2 3 3 3 3 3 3 4 4 5 5 5
1 1 1 1 1 1 1 1 1 1 1 1 1 1 2 2 1 1 1 1 1 0 1 1 1 1 1 1 1 1 2 3 3 4 3 3 3 4 4 5 5 5 5
1 1 1 1 1 1 1 1 1 1 1 0 0 1 1 1 1 1 1 1 0 0 1 1 1 1 2 1 1 1 3 4 5 5 4 3 3 4 5 5 6 5 6
Wind_Direction
184 186 171 166 172 167 169 170 158 157 152 148 153 157 162 156 147 139 152 157 145 158 141 131 119 55 33 24 20 10 1 52 79 325 1 32 49 28 62 51 43 107 23
176 167 162 162 162 163 171 174 166 165 160 161 160 159 148 146 145 147 167 155 160 172 178 142 140 96 41 16 21 342 333 17 120 296 321 353 357 12 350 311 350 349 0
159 157 159 158 161 165 170 174 174 174 167 166 153 144 134 114 117 135 155 158 169 177 137 120 114 105 117 61 21 336 325 359 68 152 286 322 331 338 339 332 331 314 306
146 153 156 162 162 162 165 159 167 170 160 155 136 129 127 120 105 105 142 157 151 130 107 104 103 104 83 16 133 339 344 17 14 358 296 309 310 313 356 328 328 328 313
147 150 154 159 149 140 140 141 141 130 129 128 117 115 114 110 91 93 179 156 149 138 134 141 120 105 93 83 69 34 23 14 318 275 294 314 320 336 319 303 307 308 314
146 147 147 145 131 130 133 131 126 113 105 101 114 116 106 88 68 65 33 292 184 163 159 170 136 108 111 94 72 56 50 30 298 324 298 289 291 290 302 310 315 330 311
149 147 144 140 131 132 134 132 135 143 143 135 129 125 121 102 90 66 28 340 334 337 167 170 156 141 125 132 120 28 350 336 265 207 245 271 285 293 307 317 310 292 274
148 151 149 144 137 137 137 142 149 146 145 150 152 144 130 116 110 94 64 317 321 323 304 214 196 163 109 133 156 170 275 282 271 246 229 261 284 306 283 268 264 284 287
150 154 151 150 148 148 150 156 152 146 141 145 148 152 153 155 146 146 141 187 237 278 294 3 46 127 58 97 132 199 285 295 294 265 251 286 307 322 332 337 321 308 297
151 154 154 153 152 156 160 159 146 147 159 159 166 170 174 172 163 165 166 183 218 264 290 337 352 7 29 100 213 219 251 263 273 307 301 297 309 324 333 312 273 280 288
149 153 153 154 157 155 154 150 146 157 165 170 169 170 176 172 169 162 166 189 215 240 256 282 317 324 357 259 250 234 257 272 257 262 268 284 303 310 335 348 346 287 282
144 148 151 153 159 153 148 156 157 155 166 183 179 179 193 172 143 163 165 192 253 220 262 256 326 331 327 304 277 295 315 329 319 317 316 315 315 311 313 345 342 335 304
137 145 149 149 145 146 151 155 158 164 175 191 186 193 193 147 121 146 172 213 252 235 217 220 288 309 315 292 291 306 311 311 310 293 293 297 295 299 337 344 338 328 316
149 151 149 142 136 137 138 146 154 172 181 188 190 195 194 180 163 163 180 198 213 257 277 278 291 268 255 243 276 295 281 258 255 247 265 279 294 310 313 305 309 312 311
149 145 143 138 139 136 118 107 141 157 185 189 193 190 195 205 216 190 173 194 203 209 215 146 254 327 261 276 277 258 250 267 274 272 273 288 298 301 297 305 303 306 306
151 146 144 139 137 134 127 95 58 79 106 156 174 181 195 179 171 173 194 202 194 187 164 202 223 228 232 240 269 287 272 255 253 262 270 275 283 288 293 301 313 308 302
153 145 139 141 143 148 153 150 136 42 37 36 154 176 188 187 169 171 198 201 202 189 195 208 218 228 240 245 250 260 270 271 258 260 264 269 275 284 294 296 299 301 297
148 149 147 146 153 163 169 169 166 161 160 326 314 196 189 187 189 187 178 139 190 208 205 209 217 229 243 246 256 272 287 302 307 297 282 273 268 273 280 286 287 286 287
148 152 148 145 156 168 167 170 172 173 171 171 149 121 181 171 168 185 173 186 203 209 206 219 232 252 268 269 276 294 312 315 324 329 315 300 287 280 281 283 286 292 292
152 152 151 158 170 170 172 176 178 174 178 181 182 175 154 145 174 206 218 221 214 212 207 210 224 240 272 285 296 309 320 318 316 314 309 306 306 299 289 287 284 286 286
143 157 167 179 187 179 179 189 186 176 180 185 188 184 176 193 206 200 198 207 213 210 206 210 223 238 249 297 297 300 298 297 301 311 315 313 311 303 293 285 282 281 286
149 154 172 190 190 179 189 193 186 184 183 179 175 181 182 195 201 196 187 197 208 198 186 188 226 255 266 286 281 285 300 304 310 314 313 306 302 298 297 293 290 286 285
143 151 166 177 173 182 201 207 193 187 187 179 170 165 179 199 200 197 185 189 179 183 92 45 253 288 342 348 331 295 270 276 302 308 301 299 295 289 289 288 287 287 285
144 155 169 177 177 187 205 215 201 197 191 185 176 169 174 186 189 191 184 164 171 157 45 315 277 272 308 351 348 339 3 333 326 315 301 286 289 294 294 293 290 290 288
159 164 168 185 197 191 194 216 215 207 198 191 182 169 167 171 181 185 172 161 172 246 304 305 322 318 304 315 335 336 315 315 313 309 298 288 278 281 285 287 290 294 290
172 165 172 184 190 192 200 207 200 208 215 219 192 180 165 161 168 171 155 153 173 288 297 307 295 306 318 326 305 307 313 314 310 306 302 289 278 281 285 282 284 288 291
Height
1539 1541 1542 1544 1546 1547 1548 1549 1550 1551 1552 1553 1553 1553 1554 1554 1555 1555 1556 1556 1556 1556 1556 1557 1557 1557 1556 1556 1556 1556 1556 1556 1556 1555 1555 1554 1553 1552 1550 1549 1547 1545 1544
1537 1539 1541 1542 1544 1545 1546 1547 1548 1549 1550 1551 1551 1552 1553 1553 1553 1554 1554 1554 1555 1555 1555 1555 1555 1555 1555 1555 1555 1554 1555 1555 1554 1553 1553 1552 1551 1550 1549 1548 1546 1545 1543
1535 1537 1538 1540 1542 1543 1544 1545 1547 1548 1549 1549 1550 1550 1551 1551 1552 1552 1553 1553 1553 1553 1553 1553 1553 1553 1553 1553 1553 1553 1553 1553 1552 1552 1551 1551 1550 1549 1547 1546 1545 1543 1542
1533 1535 1536 1538 1540 1541 1543 1544 1545 1546 1547 1548 1548 1549 1549 1550 1550 1551 1551 1551 1551 1552 1552 1552 1551 1551 1551 1551 1551 1551 1551 1551 1550 1550 1549 1548 1548 1547 1546 1545 1543 1542 1541
1531 1533 1534 1536 1538 1539 1540 1542 1543 1544 1545 1546 1546 1547 1548 1548 1548 1549 1549 1550 1550 1550 1550 1550 1550 1550 1550 1549 1549 1549 1549 1549 1548 1548 1547 1546 1545 1545 1544 1543 1541 1540 1538
1530 1531 1533 1535 1536 1537 1538 1540 1541 1542 1543 1544 1544 1545 1546 1546 1547 1547 1547 1548 1548 1548 1548 1548 1548 1548 1548 1548 1547 1547 1547 1547 1546 1546 1545 1544 1543 1542 1542 1540 1539 1537 1535
1528 1530 1531 1533 1534 1535 1537 1538 1539 1540 1540 1541 1542 1543 1543 1544 1544 1545 1545 1546 1546 1546 1546 1546 1545 1545 1545 1545 1545 1545 1544 1544 1544 1543 1542 1541 1541 1540 1539 1537 1536 1535 1533
1526 1528 1529 1531 1532 1533 1535 1536 1537 1538 1538 1539 1540 1540 1541 1541 1542 1542 1543 1543 1543 1543 1543 1543 1543 1543 1542 1542 1542 1541 1541 1541 1540 1540 1539 1539 1538 1537 1536 1535 1533 1531 1530
1524 1526 1527 1528 1530 1531 1532 1534 1535 1536 1536 1537 1538 1538 1538 1539 1539 1540 1540 1540 1540 1540 1540 1540 1540 1540 1540 1540 1539 1538 1538 1537 1537 1536 1536 1535 1534 1533 1533 1531 1529 1528 1525
1522 1523 1525 1526 1528 1529 1530 1531 1532 1533 1534 1535 1535 1536 1536 1536 1537 1537 1537 1537 1537 1537 1537 1537 1537 1537 1537 1536 1536 1535 1534 1534 1533 1533 1532 1531 1530 1529 1528 1527 1526 1524 1522
1520 1521 1523 1524 1525 1527 1528 1529 1530 1531 1532 1532 1533 1533 1534 1534 1534 1534 1534 1534 1534 1533 1533 1533 1533 1534 1533 1533 1533 1532 1531 1531 1530 1529 1528 1527 1526 1525 1524 1523 1522 1521 1519
1518 1519 1520 1522 1523 1525 1526 1527 1528 1529 1529 1530 1530 1530 1531 1531 1531 1531 1531 1531 1531 1531 1530 1530 1530 1530 1530 1529 1529 1528 1528 1527 1526 1525 1524 1523 1522 1521 1520 1519 1518 1517 1516
1516 1517 1518 1520 1521 1522 1523 1524 1525 1526 1526 1527 1527 1527 1527 1528 1528 1528 1528 1528 1528 1527 1527 1527 1527 1526 1526 1525 1525 1525 1524 1523 1522 1521 1520 1520 1519 1518 1517 1515 1514 1512 1511
1514 1515 1516 1517 1519 1520 1521 1522 1523 1523 1523 1524 1524 1524 1524 1525 1525 1525 1525 1525 1524 1524 1524 1523 1523 1522 1522 1522 1521 1521 1520 1520 1519 1518 1517 1516 1515 1514 1512 1511 1509 1508 1506
1511 1513 1514 1515 1516 1517 1518 1519 1520 1521 1521 1521 1521 1522 1522 1521 1522 1522 1522 1521 1521 1521 1520 1520 1519 1519 1518 1518 1517 1517 1516 1515 1514 1514 1513 1511 1511 1509 1508 1507 1506 1504 1502
1509 1510 1512 1513 1514 1515 1515 1516 1517 1518 1519 1519 1519 1519 1519 1519 1519 1519 1519 1518 1518 1517 1517 1516 1515 1515 1515 1514 1514 1513 1513 1512 1511 1510 1508 1507 1506 1505 1504 1503 1501 1500 1498
1507 1508 1509 1510 1511 1512 1513 1514 1514 1515 1516 1516 1516 1516 1516 1516 1516 1515 1515 1515 1515 1514 1513 1512 1512 1512 1511 1511 1510 1509 1509 1508 1507 1506 1504 1503 1502 1501 1500 1498 1497 1495 1493
1504 1506 1506 1508 1509 1510 1510 1511 1511 1511 1512 1512 1512 1512 1512 1512 1512 1512 1512 1511 1510 1510 1509 1509 1508 1508 1508 1507 1506 1506 1505 1504 1503 1501 1500 1499 1498 1496 1495 1494 1492 1491 1489
1502 1503 1504 1505 1506 1507 1507 1508 1508 1508 1509 1509 1509 1509 1509 1509 1509 1508 1508 1507 1507 1506 1506 1505 1505 1505 1504 1503 1503 1502 1501 1500 1498 1497 1496 1494 1493 1492 1490 1489 1488 1486 1485
1499 1500 1501 1502 1502 1503 1504 1505 1505 1505 1505 1505 1505 1505 1505 1505 1504 1504 1504 1504 1503 1502 1502 1502 1501 1501 1500 1499 1499 1498 1497 1496 1494 1493 1491 1490 1488 1487 1485 1484 1482 1481 1479
1496 1497 1498 1499 1499 1500 1501 1501 1501 1502 1502 1502 1502 1502 1502 1502 1501 1501 1500 1500 1499 1499 1498 1498 1497 1497 1496 1495 1494 1493 1492 1491 1490 1488 1487 1485 1484 1482 1481 1479 1478 1476 1474
1493 1494 1495 1496 1496 1497 1497 1497 1497 1498 1498 1498 1499 1499 1499 1498 1498 1497 1496 1496 1495 1495 1495 1494 1493 1492 1492 1491 1490 1489 1488 1486 1485 1483 1482 1480 1479 1477 1475 1474 1472 1470 1469
1490 1491 1492 1493 1493 1493 1493 1494 1494 1494 1494 1494 1495 1495 1494 1494 1494 1493 1493 1492 1491 1491 1490 1490 1488 1488 1487 1486 1486 1485 1483 1482 1480 1479 1477 1475 1474 1472 1470 1469 1467 1465 1463
1487 1488 1489 1489 1489 1490 1490 1490 1490 1490 1490 1491 1491 1491 1490 1490 1490 1490 1489 1488 1488 1487 1486 1485 1484 1483 1483 1482 1481 1480 1479 1477 1476 1474 1472 1471 1469 1467 1465 1464 1462 1460 1459
1484 1485 1485 1486 1486 1486 1486 1486 1486 1486 1487 1487 1487 1486 1486 1486 1486 1486 1485 1484 1484 1483 1482 1481 1480 1479 1478 1477 1476 1475 1474 1472 1471 1469 1467 1465 1464 1462 1460 1459 1457 1455 1453
1481 1482 1482 1482 1483 1483 1483 1482 1482 1482 1483 1483 1483 1482 1482 1482 1482 1481 1481 1480 1479 1478 1477 1476 1476 1475 1474 1472 1471 1470 1468 1467 1465 1464 1462 1460 1458 1457 1455 1454 1452 1450 1449